Location: Ethel Rock
(53.4667°N, 4.5667°W)
Time: 01:21:16
(UTC+00:00)

Cosmos 1697 Rocket - Pass Details

Date: 24 October 2020
Orbit: 831 x 845 km, 71.0° (Epoch: 26 November)

Event Time Altitude Azimuth Distance (km) Brightness Sun altitude
Exits shadow 03:34:02 15° 343° (NNW) 2,140 4.8 -31.1°
Maximum altitude 03:38:08 34° 42° (NE) 1,364 4.2 -30.6°
Drops below altitude 10° 03:43:15 10° 106° (ESE) 2,464 5.7 -29.9°
Sets 03:45:56 0° 116° (ESE) 3,397 6.4 -29.5°
